Location: Newark
(52.2090°N, 4.1550°W)
Time: 01:44:55
(UTC+00:00)

Transit 4A - Pass Details

Date: 30 October 2019
Orbit: 868 x 976 km, 66.8° (Epoch: 11 November)

Event Time Altitude Azimuth Distance (km) Brightness Sun altitude
Exits shadow 03:56:57 65° 346° (NNW) 1,032 8.0 -29.5°
Drops below altitude 10° 04:02:33 10° 37° (NE) 2,636 10.9 -28.7°
Sets 04:05:04 0° 40° (NE) 3,565 11.7 -28.3°
